THY71C LTFJ-EDDV

Flight info

Callsign THY71C
Flight time N/A
Altitude 38000
Route TUDBU DCT NAVOD DCT MOPUG DCT ZOLKU DCT BEGLA DCT DEXIT DCT AKOSI DCT LASGA M726 LASTO/N0398F300 M852 BIRKA/N0365F240 T803 GITEX GITEX4R
Aircraft A20N/M-SDE2E3FGHIRWXY/LB1

Departure

Time 2026-04-29 18:07
Airport Istanbul Sabiha Gökçen International Airport (LTFJ)

Arrival

Time N/A
Airport Hannover Airport (EDDV)
Time Latitude Longitude Altitude Speed Heading
2026-04-29 17:35 40.90363 29.30947 317 ft 0 kts 334°
2026-04-29 17:56 40.90343 29.30961 315 ft 4 kts 329°
2026-04-29 17:57 40.90320 29.30980 315 ft 4 kts 319°
2026-04-29 17:57 40.90302 29.31006 317 ft 4 kts 294°
2026-04-29 17:57 40.90299 29.31032 316 ft 1 kts 244°
2026-04-29 18:00 40.90298 29.31030 317 ft 1 kts 244°
2026-04-29 18:01 40.90283 29.30989 316 ft 9 kts 244°
2026-04-29 18:01 40.90248 29.30896 316 ft 13 kts 238°
2026-04-29 18:01 40.90170 29.30900 317 ft 13 kts 154°
2026-04-29 18:01 40.90077 29.30919 317 ft 15 kts 207°
2026-04-29 18:02 40.90019 29.30795 316 ft 17 kts 244°
2026-04-29 18:02 40.89969 29.30663 317 ft 13 kts 244°
2026-04-29 18:02 40.89925 29.30545 317 ft 16 kts 243°
2026-04-29 18:02 40.89874 29.30408 317 ft 18 kts 244°
2026-04-29 18:03 40.89816 29.30248 317 ft 20 kts 243°
2026-04-29 18:03 40.89749 29.30069 316 ft 23 kts 244°
2026-04-29 18:03 40.89678 29.29873 315 ft 25 kts 244°
2026-04-29 18:03 40.89602 29.29667 316 ft 26 kts 244°
2026-04-29 18:04 40.89520 29.29444 314 ft 28 kts 244°
2026-04-29 18:04 40.89431 29.29265 315 ft 21 kts 202°
2026-04-29 18:04 40.89349 29.29286 317 ft 0 kts 156°
2026-04-29 18:05 40.89336 29.29293 317 ft 6 kts 156°
2026-04-29 18:05 40.89284 29.29351 317 ft 12 kts 104°
2026-04-29 18:05 40.89292 29.29394 317 ft 1 kts 64°
2026-04-29 18:06 40.89313 29.29451 315 ft 26 kts 64°
2026-04-29 18:06 40.89499 29.29955 317 ft 93 kts 64°
2026-04-29 18:06 40.89862 29.30936 318 ft 143 kts 65°
2026-04-29 18:06 40.90326 29.32210 655 ft 157 kts 62°
2026-04-29 18:07 40.90826 29.33535 1156 ft 166 kts 62°
2026-04-29 18:07 40.91357 29.34893 1787 ft 169 kts 64°
2026-04-29 18:07 40.91940 29.36338 2175 ft 188 kts 60°
2026-04-29 18:07 40.92577 29.37954 2534 ft 208 kts 65°
2026-04-29 18:08 40.93208 29.39774 3025 ft 230 kts 65°
2026-04-29 18:08 40.93906 29.41799 3674 ft 244 kts 64°
2026-04-29 18:08 40.94635 29.43861 4559 ft 251 kts 64°
2026-04-29 18:08 40.95389 29.45957 5457 ft 255 kts 63°
2026-04-29 18:09 40.96167 29.48099 6321 ft 261 kts 63°
2026-04-29 18:09 40.96970 29.50296 6786 ft 269 kts 63°
2026-04-29 18:09 40.97809 29.52593 6954 ft 281 kts 63°
2026-04-29 18:09 40.98648 29.54890 6996 ft 281 kts 63°
2026-04-29 18:10 40.99540 29.57233 6991 ft 281 kts 56°
2026-04-29 18:10 41.00835 29.59142 7159 ft 280 kts 35°
2026-04-29 18:10 41.02511 29.60329 7847 ft 277 kts 16°
2026-04-29 18:10 41.04416 29.60758 8838 ft 273 kts 357°
2026-04-29 18:11 41.06257 29.60385 9748 ft 271 kts 342°
2026-04-29 18:11 41.08100 29.59685 10587 ft 277 kts 341°
2026-04-29 18:11 41.10028 29.58950 10915 ft 299 kts 341°
2026-04-29 18:11 41.12106 29.58157 11198 ft 320 kts 341°
2026-04-29 18:12 41.14278 29.57335 11865 ft 327 kts 341°
2026-04-29 18:12 41.16458 29.56514 12609 ft 332 kts 341°
2026-04-29 18:12 41.18660 29.55684 13353 ft 337 kts 341°
2026-04-29 18:12 41.20928 29.54827 14068 ft 342 kts 341°
2026-04-29 18:13 41.23154 29.53987 14797 ft 343 kts 340°
2026-04-29 18:13 41.25493 29.53262 15479 ft 348 kts 344°
2026-04-29 18:13 41.27912 29.52590 16171 ft 352 kts 344°
2026-04-29 18:13 41.30283 29.51925 16832 ft 355 kts 344°
2026-04-29 18:14 41.32714 29.51240 17509 ft 358 kts 344°
2026-04-29 18:14 41.35173 29.50545 18104 ft 364 kts 344°
2026-04-29 18:14 41.37644 29.49835 18770 ft 364 kts 342°
2026-04-29 18:14 41.40065 29.48833 19351 ft 364 kts 335°
2026-04-29 18:15 41.42460 29.47590 19939 ft 367 kts 335°
2026-04-29 18:15 41.44844 29.46367 20549 ft 368 kts 335°
2026-04-29 18:15 41.47216 29.45156 21110 ft 371 kts 335°
2026-04-29 18:15 41.49634 29.43921 21661 ft 374 kts 335°
2026-04-29 18:16 41.52075 29.42672 22224 ft 377 kts 335°
2026-04-29 18:16 41.54532 29.41413 22780 ft 380 kts 335°
2026-04-29 18:16 41.57007 29.40143 23324 ft 383 kts 335°
2026-04-29 18:16 41.59454 29.38741 23837 ft 382 kts 327°
2026-04-29 18:17 41.61611 29.36714 24285 ft 379 kts 315°
2026-04-29 18:17 41.63370 29.34110 24746 ft 377 kts 303°
2026-04-29 18:17 41.64657 29.31060 25187 ft 377 kts 292°
2026-04-29 18:17 41.65415 29.27702 25627 ft 379 kts 280°
2026-04-29 18:18 41.65633 29.24133 26064 ft 382 kts 273°
2026-04-29 18:18 41.65710 29.20584 26494 ft 384 kts 273°
2026-04-29 18:18 41.65793 29.17053 26908 ft 385 kts 273°
2026-04-29 18:18 41.65879 29.13462 27324 ft 387 kts 273°
2026-04-29 18:19 41.65964 29.09859 27723 ft 389 kts 273°
2026-04-29 18:19 41.66048 29.06234 28095 ft 391 kts 273°
2026-04-29 18:19 41.66131 29.02580 28477 ft 393 kts 273°
2026-04-29 18:19 41.66212 28.98920 28839 ft 395 kts 273°
2026-04-29 18:20 41.66293 28.95241 29186 ft 397 kts 273°
2026-04-29 18:20 41.66373 28.91545 29533 ft 399 kts 273°
2026-04-29 18:20 41.66452 28.87826 29864 ft 401 kts 273°
2026-04-29 18:20 41.66530 28.84101 30197 ft 402 kts 273°
2026-04-29 18:21 41.66608 28.80348 30491 ft 404 kts 273°
2026-04-29 18:21 41.66684 28.76591 30789 ft 405 kts 273°
2026-04-29 18:21 41.66759 28.72811 31084 ft 407 kts 273°
2026-04-29 18:21 41.66833 28.69030 31430 ft 407 kts 273°
2026-04-29 18:22 41.66905 28.65253 31821 ft 405 kts 273°
2026-04-29 18:22 41.66976 28.61505 32213 ft 404 kts 273°
2026-04-29 18:22 41.67038 28.57761 32606 ft 403 kts 273°
2026-04-29 18:22 41.67083 28.53999 32897 ft 403 kts 273°
2026-04-29 18:23 41.67203 28.50268 33245 ft 401 kts 277°
2026-04-29 18:23 41.67612 28.46596 33603 ft 398 kts 283°
2026-04-29 18:23 41.68306 28.43034 33946 ft 396 kts 288°
2026-04-29 18:23 41.69279 28.39578 34280 ft 395 kts 294°
2026-04-29 18:24 41.70388 28.36236 34530 ft 395 kts 293°
2026-04-29 18:24 41.71498 28.32854 34798 ft 394 kts 293°
2026-04-29 18:24 41.72590 28.29503 35020 ft 394 kts 293°
2026-04-29 18:24 41.73687 28.26133 35239 ft 394 kts 293°
2026-04-29 18:25 41.74761 28.22829 35453 ft 394 kts 293°
2026-04-29 18:25 41.75871 28.19413 35666 ft 394 kts 293°
2026-04-29 18:25 41.76964 28.16046 35872 ft 394 kts 293°
2026-04-29 18:25 41.78054 28.12683 36074 ft 394 kts 293°
2026-04-29 18:26 41.78815 28.10492 36202 ft 394 kts 296°
2026-04-29 18:26 41.80180 28.07298 36382 ft 395 kts 301°
2026-04-29 18:26 41.81772 28.04300 36592 ft 396 kts 305°
2026-04-29 18:26 41.83434 28.01372 36772 ft 396 kts 305°
2026-04-29 18:27 41.85092 27.98418 36952 ft 396 kts 304°
2026-04-29 18:27 41.86746 27.95462 37119 ft 395 kts 304°
2026-04-29 18:27 41.88400 27.92506 37285 ft 396 kts 304°
2026-04-29 18:27 41.90053 27.89549 37439 ft 396 kts 304°
2026-04-29 18:28 41.91702 27.86600 37593 ft 396 kts 304°
2026-04-29 18:28 41.93352 27.83646 37740 ft 395 kts 304°
2026-04-29 18:28 41.94999 27.80698 37913 ft 395 kts 304°
2026-04-29 18:28 41.96642 27.77751 38077 ft 395 kts 304°
2026-04-29 18:29 41.98311 27.74814 38141 ft 397 kts 306°
2026-04-29 18:29 42.01757 27.68958 38145 ft 403 kts 306°
2026-04-29 18:30 42.05271 27.62985 38143 ft 409 kts 306°
2026-04-29 18:30 42.08803 27.56945 38139 ft 412 kts 306°
2026-04-29 18:31 42.12358 27.50838 38139 ft 415 kts 306°
2026-04-29 18:31 42.15893 27.44755 38133 ft 415 kts 306°
2026-04-29 18:32 42.19443 27.38631 38125 ft 413 kts 306°
2026-04-29 18:32 42.24738 27.29473 38130 ft 412 kts 306°
2026-04-29 18:33 42.28231 27.23415 38131 ft 413 kts 306°
2026-04-29 18:33 42.31766 27.17274 38128 ft 413 kts 306°
2026-04-29 18:34 42.34715 27.12140 38126 ft 413 kts 306°
2026-04-29 18:34 42.38806 27.05005 38130 ft 413 kts 306°
2026-04-29 18:35 42.42318 26.98864 38129 ft 412 kts 306°
2026-04-29 18:35 42.45827 26.92718 38126 ft 412 kts 306°
2026-04-29 18:36 42.49330 26.86569 38127 ft 413 kts 306°
2026-04-29 18:36 42.52826 26.80420 38126 ft 412 kts 305°
2026-04-29 18:37 42.56317 26.74267 38126 ft 412 kts 305°
2026-04-29 18:37 42.59806 26.68104 38128 ft 412 kts 305°
2026-04-29 18:38 42.63291 26.61935 38125 ft 412 kts 305°
2026-04-29 18:38 42.66771 26.55765 38118 ft 412 kts 305°
2026-04-29 18:39 42.70249 26.49585 38119 ft 411 kts 305°
2026-04-29 18:39 42.73721 26.43402 38116 ft 411 kts 305°
2026-04-29 18:40 42.77185 26.37219 38113 ft 411 kts 305°
2026-04-29 18:40 42.80652 26.31019 38121 ft 411 kts 305°
2026-04-29 18:41 42.87570 26.18607 38118 ft 412 kts 305°
2026-04-29 18:42 42.91029 26.12383 38105 ft 412 kts 304°
2026-04-29 18:42 42.94473 26.06171 38108 ft 411 kts 304°
2026-04-29 18:43 42.97921 25.99941 38118 ft 411 kts 304°
2026-04-29 18:43 43.01359 25.93716 38135 ft 411 kts 304°
2026-04-29 18:44 43.04793 25.87479 38135 ft 411 kts 304°
2026-04-29 18:44 43.08230 25.81230 38148 ft 410 kts 304°
2026-04-29 18:45 43.11653 25.74993 38167 ft 410 kts 304°
2026-04-29 18:45 43.15076 25.68742 38170 ft 410 kts 304°